Wind_Speed
5 4 9 10 5 4 4 4 4 3 5 4 4 12 14 11 15 18 20 26 30 37 39 32 39 37 36 39 34 29 26 23 23 21 19 19 22 23 25 25 28 22 31 34
1 6 5 7 6 6 6 7 9 5 5 5 6 16 18 16 8 19 23 27 32 39 29 29 40 41 40 40 35 32 29 25 24 21 17 17 18 22 21 26 30 33 28 36
6 4 1 7 4 5 4 7 4 7 4 6 5 18 14 19 13 18 23 26 34 35 31 29 41 44 44 43 38 34 31 26 25 20 19 19 20 19 18 23 26 30 35 36
5 1 3 2 1 3 4 5 6 4 2 7 3 16 22 13 12 12 19 21 30 30 24 32 40 46 46 45 40 35 31 27 25 23 21 19 18 18 18 17 20 25 32 35
3 5 4 3 3 3 5 4 5 7 3 2 5 3 17 7 14 16 10 17 23 27 29 32 37 45 49 47 42 36 32 28 25 23 21 18 18 16 13 11 11 14 23 31
4 2 4 5 2 1 1 2 3 3 0 8 11 11 13 9 13 13 14 19 25 29 23 32 34 44 52 49 43 38 33 30 26 25 21 20 19 17 15 17 15 14 16 21
2 3 3 4 3 2 3 3 2 4 5 6 5 12 17 23 19 17 17 20 26 24 21 23 32 41 53 52 46 41 35 32 28 26 22 22 19 18 16 15 17 17 18 19
5 1 7 5 7 6 5 5 3 4 3 3 8 6 5 12 14 13 18 19 30 36 34 25 29 43 51 54 49 43 37 34 29 27 23 22 22 20 18 17 16 17 18 19
4 3 2 5 4 7 3 7 2 5 3 3 4 6 5 14 17 18 15 21 25 29 32 32 36 42 46 55 51 44 38 34 30 28 24 24 25 23 23 21 20 19 19 22
2 1 3 2 4 2 4 3 4 3 3 3 4 4 2 12 16 17 18 15 21 16 16 27 39 43 45 52 47 43 35 32 28 28 24 23 24 25 22 25 26 25 23 25
2 2 2 6 6 7 3 3 3 2 4 2 3 3 4 6 11 15 15 26 27 24 9 22 31 37 41 45 45 41 35 31 28 27 25 24 23 22 21 25 28 28 28 29
1 3 2 8 5 5 3 3 4 2 2 3 2 5 3 8 11 16 21 32 29 23 9 17 20 28 33 38 41 38 34 29 27 26 25 24 24 24 25 26 27 27 29 28
3 2 3 2 3 5 4 1 2 6 3 6 4 2 5 7 14 26 26 34 31 29 19 19 17 19 23 26 30 32 30 29 26 24 24 24 25 26 27 27 27 27 29 29
5 2 2 3 4 3 4 6 7 3 3 3 7 4 1 6 2 14 28 31 29 27 28 25 22 16 9 6 9 15 21 23 23 24 23 24 25 27 27 26 28 29 29 31
3 1 2 5 8 5 5 10 12 9 8 6 5 5 2 0 7 5 9 26 21 21 27 28 28 26 22 15 6 5 10 14 18 23 25 25 23 25 26 27 26 27 29 31
2 2 1 4 5 2 5 14 15 12 9 11 14 16 6 7 8 10 6 15 11 16 23 23 24 26 25 18 17 7 9 13 14 14 20 23 23 24 26 27 29 29 30 31
1 1 2 4 4 7 6 7 10 3 4 2 5 5 6 7 8 8 2 6 15 18 20 21 24 23 20 19 15 13 9 4 4 12 13 14 19 23 25 26 30 32 33 33
5 4 3 3 3 3 6 11 11 6 5 16 15 6 15 17 19 19 17 16 17 15 16 16 19 20 19 17 14 9 7 8 7 6 11 11 13 17 21 21 24 27 32 37
5 4 1 2 3 8 9 4 3 10 8 6 7 11 18 23 24 17 17 19 16 16 15 16 17 17 16 17 14 12 13 11 7 5 2 3 5 8 13 20 25 30 30 31
5 3 3 1 2 3 4 3 15 11 3 2 8 10 6 2 5 4 8 13 16 15 14 15 15 14 13 15 13 11 13 13 13 11 9 6 1 5 6 10 14 20 28 34
3 1 7 6 6 6 4 11 13 4 3 9 10 14 5 3 9 12 9 12 13 9 12 12 13 15 15 12 11 11 12 13 13 12 11 10 10 9 8 8 9 10 12 18
4 4 3 3 4 7 15 4 1 4 16 15 17 18 23 20 17 12 10 11 12 11 11 12 13 14 13 12 11 12 12 12 11 11 11 11 11 11 11 11 10 9 8 7
1 2 2 5 3 8 19 15 18 18 20 20 19 17 15 16 14 11 10 11 12 15 14 13 13 12 13 13 14 13 13 11 10 10 9 10 11 12 11 11 11 10 9 7
1 3 3 3 7 9 14 15 19 17 16 16 16 16 14 14 10 10 9 10 12 13 14 13 12 12 12 12 12 12 10 9 9 10 11 9 10 11 12 12 14 13 10 11
3 7 7 2 6 6 18 14 12 15 11 12 10 13 11 8 11 10 8 8 10 12 13 13 13 13 12 12 11 10 8 7 8 8 8 7 8 9 10 11 14 15 15 12
6 4 3 3 11 6 8 11 10 14 13 13 12 10 10 7 8 7 6 7 8 9 10 9 9 9 10 11 11 10 10 8 7 5 4 5 7 8 9 13 14 14 12 10
Wind_Direction
183 162 206 203 214 211 241 264 244 239 259 294 233 283 298 291 309 301 296 293 290 289 279 252 224 214 214 212 212 215 213 212 211 212 218 223 225 227 227 223 221 217 221 227
66 235 205 198 227 229 247 264 270 252 217 268 275 288 288 277 255 267 278 289 294 288 265 246 216 211 213 211 210 212 213 219 217 223 229 235 233 227 232 229 227 224 225 218
172 199 81 159 206 257 246 241 247 255 295 259 282 278 268 270 267 271 272 277 286 286 254 228 207 209 211 211 210 215 216 220 218 221 220 230 222 219 220 220 229 223 221 222
214 180 117 82 234 136 278 222 248 263 280 268 41 282 270 271 264 267 272 274 284 290 253 220 204 207 212 214 210 216 217 217 219 217 223 235 220 223 225 221 231 225 215 221
210 147 124 158 201 125 234 341 280 255 213 312 164 271 279 190 248 260 267 268 276 286 259 226 216 218 213 212 210 213 215 216 218 218 226 229 212 218 227 214 194 209 214 219
184 110 129 186 107 167 333 325 293 337 334 255 230 203 278 239 242 254 259 253 266 267 256 240 237 219 210 210 209 211 212 215 219 220 226 221 209 212 208 194 188 204 204 217
43 184 143 122 118 340 148 147 265 235 214 252 281 211 248 288 267 249 254 257 269 270 271 232 216 213 211 208 207 208 210 215 218 220 223 218 208 211 212 206 194 197 199 208
155 269 153 184 191 184 194 225 221 248 221 278 202 241 241 251 262 271 270 298 289 289 282 249 232 220 212 208 207 207 210 215 218 218 221 216 209 209 207 215 207 205 207 212
135 269 162 169 158 152 175 225 282 305 257 268 234 278 291 15 9 2 355 349 318 284 263 244 224 217 210 208 207 208 209 214 218 219 218 216 209 209 202 207 211 218 217 207
153 166 182 173 87 303 159 93 198 173 265 264 265 278 357 8 351 352 349 350 347 316 267 213 206 207 209 209 204 207 210 216 220 220 220 220 213 213 204 203 207 215 221 217
99 112 313 113 207 179 160 233 216 288 252 261 319 275 49 17 349 342 343 343 341 2 212 194 193 199 202 204 204 206 208 215 222 224 224 219 214 209 210 208 210 216 225 227
73 67 249 241 240 145 128 163 199 228 274 275 256 268 17 357 358 342 341 348 355 9 191 185 186 190 197 202 204 206 210 217 224 226 231 226 221 215 213 216 214 218 225 227
140 131 318 348 69 22 64 176 216 249 237 227 295 286 25 64 342 342 339 343 357 43 110 139 164 180 191 198 204 207 212 220 226 229 237 240 230 226 226 224 225 221 224 228
81 106 173 226 211 259 270 246 251 255 266 285 228 236 347 83 81 322 325 332 350 54 62 94 103 111 132 181 225 233 230 232 236 239 242 247 246 243 242 238 232 232 232 233
91 163 262 267 252 260 273 285 274 251 244 255 299 284 71 227 132 169 296 318 348 51 65 69 88 96 98 106 137 209 234 243 248 251 250 253 254 252 253 255 251 248 245 243
10 254 314 281 272 212 270 276 275 243 255 281 263 256 286 113 128 135 260 339 342 60 57 67 73 83 81 82 78 101 183 225 239 254 262 258 258 260 259 259 260 260 258 255
151 131 31 247 319 328 289 16 332 224 231 272 281 291 182 127 155 150 290 359 65 53 53 52 64 71 72 72 71 70 70 61 214 237 262 271 271 268 264 264 265 264 264 265
181 175 169 253 326 255 250 346 43 49 2 283 250 129 106 98 80 72 78 83 76 71 68 60 64 73 74 71 67 75 69 61 89 183 226 237 238 243 253 261 266 267 269 267
194 128 281 195 215 285 299 9 36 330 295 294 114 133 122 126 100 59 72 86 78 73 68 63 62 62 66 68 61 61 75 85 91 102 159 253 265 273 262 251 255 263 267 272
112 133 146 163 248 265 230 28 339 301 281 129 121 158 224 196 99 99 69 77 71 58 60 62 62 62 63 61 53 48 55 52 52 53 55 55 6 268 275 270 259 255 250 256
83 100 211 228 240 279 305 324 328 212 319 47 111 141 232 58 91 110 77 59 57 49 50 58 55 55 55 52 48 42 40 40 41 42 38 34 29 23 12 343 302 290 283 274
198 166 205 187 212 254 351 350 6 98 44 58 68 87 100 99 99 91 75 61 59 55 53 47 46 48 46 45 42 42 39 39 23 20 18 25 26 18 5 356 347 324 303 308
322 198 279 194 213 81 61 72 60 70 69 47 51 69 94 95 90 87 74 58 50 45 43 37 33 34 37 36 36 37 38 30 19 10 14 14 19 21 24 25 18 4 349 341
306 347 260 158 132 104 79 66 66 63 67 68 60 67 68 81 79 64 45 38 37 37 35 32 28 29 32 35 32 29 23 19 11 11 7 21 21 23 29 33 31 25 21 22
346 323 325 22 50 51 51 55 72 75 53 63 56 54 61 53 58 53 42 35 37 39 36 29 24 23 23 21 21 18 9 356 351 354 10 15 41 31 23 37 37 30 24 21
356 2 334 360 328 62 48 52 64 65 58 53 45 35 24 22 29 23 28 29 37 44 45 42 39 34 26 21 15 14 10 6 0 7 28 41 52 60 58 65 68 63 64 70
Height
1441 1448 1448 1447 1446 1444 1445 1447 1451 1446 1441 1441 1437 1431 1423 1420 1418 1418 1414 1412 1410 1408 1408 1413 1417 1421 1424 1430 1434 1437 1439 1442 1445 1446 1448 1450 1452 1455 1458 1461 1464 1465 1469 1472
1444 1445 1441 1441 1442 1444 1445 1449 1448 1443 1439 1439 1438 1429 1418 1413 1411 1412 1410 1405 1404 1401 1401 1404 1410 1414 1417 1422 1427 1431 1435 1438 1441 1443 1445 1446 1448 1450 1452 1455 1458 1461 1465 1466
1444 1436 1434 1436 1440 1444 1445 1449 1447 1446 1439 1435 1435 1420 1414 1399 1403 1403 1402 1400 1398 1396 1395 1397 1402 1406 1412 1416 1420 1425 1429 1433 1437 1440 1441 1443 1444 1445 1448 1450 1452 1455 1459 1464
1436 1431 1433 1437 1440 1442 1448 1441 1442 1443 1445 1446 1435 1423 1403 1401 1398 1397 1394 1394 1392 1392 1391 1392 1396 1401 1405 1409 1416 1421 1426 1430 1433 1436 1437 1438 1440 1441 1443 1445 1448 1450 1454 1459
1432 1432 1434 1438 1440 1442 1444 1440 1442 1442 1444 1444 1441 1448 1386 1392 1394 1389 1386 1386 1387 1387 1387 1390 1390 1393 1398 1404 1410 1416 1422 1426 1429 1432 1434 1435 1436 1438 1440 1442 1445 1448 1452 1456
1428 1428 1430 1433 1436 1440 1442 1443 1441 1442 1443 1440 1431 1437 1394 1394 1387 1380 1379 1377 1380 1382 1384 1384 1385 1389 1394 1399 1406 1412 1417 1422 1426 1428 1430 1432 1433 1435 1437 1439 1443 1447 1450 1453
1428 1430 1430 1433 1441 1443 1444 1446 1458 1445 1443 1431 1412 1423 1398 1387 1376 1371 1369 1370 1372 1375 1375 1377 1379 1382 1387 1393 1399 1407 1413 1416 1421 1424 1427 1429 1432 1434 1436 1439 1441 1444 1448 1450
1436 1436 1431 1431 1435 1442 1445 1442 1440 1433 1433 1424 1406 1408 1389 1370 1363 1365 1366 1363 1365 1365 1365 1368 1370 1372 1377 1386 1393 1401 1407 1412 1415 1420 1424 1427 1430 1433 1435 1438 1440 1443 1447 1452
1434 1432 1425 1428 1430 1434 1442 1441 1438 1436 1432 1427 1410 1394 1378 1372 1373 1368 1362 1362 1362 1360 1358 1358 1361 1365 1373 1380 1387 1395 1402 1408 1412 1417 1421 1423 1427 1430 1433 1437 1440 1443 1446 1450
1424 1432 1426 1428 1430 1433 1437 1438 1436 1435 1427 1418 1405 1398 1387 1388 1386 1379 1373 1367 1364 1353 1350 1350 1355 1359 1367 1377 1386 1393 1401 1406 1410 1414 1418 1420 1423 1427 1431 1435 1439 1442 1446 1450
1423 1430 1432 1430 1432 1433 1437 1437 1438 1435 1429 1418 1413 1400 1393 1397 1395 1390 1382 1372 1362 1351 1351 1356 1358 1363 1368 1377 1384 1392 1398 1404 1408 1411 1414 1417 1420 1424 1429 1432 1436 1440 1444 1448
1426 1431 1437 1431 1421 1422 1427 1430 1432 1430 1423 1419 1411 1408 1396 1394 1395 1394 1382 1375 1364 1354 1352 1358 1365 1367 1370 1377 1384 1391 1396 1401 1406 1410 1412 1415 1419 1422 1425 1429 1432 1436 1439 1444
1426 1434 1440 1431 1428 1428 1429 1432 1434 1431 1429 1421 1419 1407 1397 1393 1396 1392 1387 1379 1371 1363 1361 1364 1369 1371 1375 1381 1386 1391 1397 1401 1406 1411 1413 1416 1418 1422 1423 1426 1429 1432 1436 1439
1425 1435 1438 1445 1437 1431 1433 1427 1427 1429 1421 1415 1409 1402 1398 1398 1399 1402 1395 1390 1383 1376 1373 1371 1373 1377 1381 1386 1391 1395 1399 1403 1405 1408 1411 1413 1416 1418 1422 1424 1428 1430 1433 1436
1430 1437 1434 1432 1428 1425 1425 1422 1419 1420 1419 1416 1406 1400 1398 1396 1397 1402 1403 1398 1394 1390 1385 1384 1384 1383 1384 1387 1391 1393 1398 1401 1403 1404 1407 1410 1414 1417 1420 1423 1426 1430 1432 1434
1433 1438 1434 1434 1426 1424 1423 1413 1410 1408 1410 1411 1407 1402 1395 1397 1400 1401 1404 1403 1400 1400 1393 1392 1391 1385 1386 1392 1390 1397 1396 1396 1397 1401 1405 1408 1411 1414 1416 1419 1422 1424 1426 1428
1435 1436 1438 1436 1427 1424 1421 1410 1405 1403 1405 1407 1405 1395 1391 1395 1400 1402 1404 1406 1404 1402 1399 1400 1395 1392 1393 1394 1397 1398 1398 1397 1396 1400 1403 1405 1407 1409 1412 1415 1416 1418 1420 1422
1434 1435 1438 1440 1429 1435 1408 1405 1403 1398 1404 1402 1399 1396 1397 1401 1406 1406 1407 1407 1407 1409 1406 1405 1402 1397 1395 1397 1398 1400 1399 1397 1397 1398 1400 1402 1403 1405 1407 1408 1411 1413 1415 1415
1429 1435 1442 1442 1435 1422 1410 1404 1405 1407 1400 1399 1397 1400 1399 1403 1404 1412 1411 1409 1411 1409 1410 1407 1403 1401 1399 1399 1402 1402 1401 1399 1399 1399 1400 1400 1400 1401 1401 1403 1404 1405 1406 1406
1428 1432 1439 1445 1438 1438 1409 1405 1404 1402 1406 1400 1401 1404 1403 1402 1405 1416 1417 1413 1411 1412 1411 1408 1407 1405 1403 1403 1404 1404 1401 1400 1400 1400 1400 1399 1398 1398 1398 1397 1398 1399 1399 1400
1435 1438 1437 1436 1434 1425 1408 1408 1403 1409 1415 1404 1404 1404 1407 1408 1409 1416 1417 1416 1414 1412 1411 1410 1408 1407 1407 1406 1405 1405 1404 1403 1403 1403 1401 1400 1398 1396 1395 1394 1393 1393 1393 1393
1431 1437 1439 1435 1431 1431 1413 1408 1409 1417 1415 1413 1411 1411 1410 1414 1415 1417 1418 1419 1417 1416 1412 1411 1412 1410 1409 1409 1408 1407 1405 1405 1404 1403 1402 1400 1398 1397 1394 1392 1390 1390 1389 1387
1433 1428 1429 1427 1422 1420 1418 1419 1418 1418 1416 1418 1418 1417 1417 1417 1420 1422 1422 1422 1421 1417 1415 1415 1413 1412 1411 1410 1408 1407 1406 1406 1406 1406 1402 1400 1398 1396 1394 1392 1390 1389 1388 1386
1429 1430 1424 1420 1420 1421 1422 1423 1421 1421 1422 1422 1423 1422 1424 1422 1422 1422 1424 1423 1421 1419 1417 1417 1416 1414 1413 1412 1411 1409 1407 1406 1407 1405 1402 1401 1398 1397 1394 1392 1391 1390 1388 1387
1439 1433 1429 1421 1424 1424 1425 1426 1425 1424 1429 1425 1425 1424 1426 1430 1427 1424 1426 1426 1423 1420 1418 1417 1416 1415 1414 1412 1410 1409 1408 1408 1406 1404 1402 1401 1399 1398 1396 1393 1392 1390 1388 1388
1443 1441 1437 1430 1432 1428 1432 1430 1429 1428 1428 1429 1427 1426 1428 1429 1428 1429 1430 1427 1424 1421 1420 1421 1421 1420 1417 1414 1412 1409 1408 1407 1405 1403 1402 1400 1399 1398 1397 1396 1394 1392 1391 1390